Weather reports worldwide

Advertisment
Wattisham, United Kingdom (3590): temperature & dewpoint: 15.02.2018 17:00:00 - 21.02.2018 17:00:00 (GMT)Wattisham, United Kingdom (3590): temperature -20cm & temperature -100cm: 15.02.2018 17:00:00 - 21.02.2018 17:00:00 (GMT)Wattisham, United Kingdom (3590): wind speed & gusts: 15.02.2018 17:00:00 - 21.02.2018 17:00:00 (GMT)Wattisham, United Kingdom (3590): wind direction: 15.02.2018 17:00:00 - 21.02.2018 17:00:00 (GMT)Wattisham, United Kingdom (3590): reduced air pressure: 15.02.2018 17:00:00 - 21.02.2018 17:00:00 (GMT)Wattisham, United Kingdom (3590): visibility: 15.02.2018 17:00:00 - 21.02.2018 17:00:00 (GMT)Wattisham, United Kingdom (3590): sunshine duration: 15.02.2018 17:00:00 - 21.02.2018 17:00:00 (GMT)Wattisham, United Kingdom (3590): precipitation: 15.02.2018 17:00:00 - 21.02.2018 17:00:00 (GMT)
Date & Time tt [°C] td [°C] tt -20cm [°C] tt -100cm [°C] ff [km/h] ff [kn] fx [km/h] fx [kn] dd ppp [hPa] vv [km] sd [min] rr [mm]
21.02.2018 17:00:00 3,9 2,2 - - 11 6 - - N 1025,9 7 0 0,0
21.02.2018 16:00:00 4,5 1,9 - - 11 6 - - N 1025,9 8 0 0,0
21.02.2018 15:00:00 4,8 1,0 - - 9 5 - - N 1026,2 9 0 0,0
21.02.2018 14:00:00 4,6 1,6 - - 9 5 - - N 1026,8 8 0 0,0
21.02.2018 13:00:00 4,7 1,9 - - 9 5 - - N 1027,4 4,5 0 0,0
21.02.2018 12:00:00 4,1 2,7 - - 11 6 - - NNE 1027,9 3,8 0 0,0
21.02.2018 11:00:00 3,4 2,3 - - 9 5 - - NNE 1028,1 2,5 0 0,0
21.02.2018 10:00:00 2,0 1,3 - - 8 4 - - N 1028,4 2,5 0 0,0
21.02.2018 09:00:00 0,9 0,2 5,2 5,5 2 1 - - NNW 1028,1 2,5 0 0,0
21.02.2018 08:00:00 1,1 0,4 - - 4 2 - - NE 1027,5 2,0 0 0,0
21.02.2018 07:00:00 0,5 0,3 - - 8 4 - - NNE 1027,6 1,5 0 0,0
21.02.2018 06:00:00 0,1 -0,3 - - 9 5 - - NNE 1027,4 1,6 0 0,0
21.02.2018 05:00:00 0,8 -0,1 - - 11 6 - - NE 1027,5 2,0 0 0,0
21.02.2018 04:00:00 0,2 0,1 - - 9 5 - - NE 1027,5 1,8 0 0,0
21.02.2018 03:00:00 -0,5 -0,7 - - 9 5 - - NNE 1027,5 1,6 0 0,0
21.02.2018 02:00:00 -0,6 -0,9 - - 9 5 - - N 1027,4 1,8 0 0,0
21.02.2018 01:00:00 0,3 0,0 - - 8 4 - - NNE 1026,7 2,0 0 0,0
21.02.2018 00:00:00 0,7 0,3 - - 9 5 - - NNE 1026,3 2,5 - 0,0
20.02.2018 23:00:00 1,5 0,4 - - 8 4 - - NNE 1025,7 2,3 0 0,0
20.02.2018 22:00:00 2,3 1,1 - - 13 7 - - ENE 1025,3 3,3 0 0,0
20.02.2018 21:00:00 3,4 1,9 - - 16 9 - - ENE 1024,5 6 0 0,0
20.02.2018 20:00:00 3,5 2,1 - - 16 9 - - ENE 1023,7 10 0 0,0
20.02.2018 19:00:00 4,2 3,2 - - 15 8 - - E 1022,5 9 0 0,0
20.02.2018 18:00:00 5,5 4,6 - - 22 12 - - NNE 1020,8 10 0 0,2
20.02.2018 17:00:00 5,5 4,6 - - 28 15 - - N 1019,7 10 0 0,0
20.02.2018 16:00:00 5,3 3,8 - - 28 15 - - NNW 1019,2 6 0 0,2
20.02.2018 15:00:00 5,7 3,6 - - 31 17 50 27 N 1019,5 10 6 0,0
20.02.2018 14:00:00 6,5 3,8 - - 31 17 59 32 N 1019,5 10 0 0,0
20.02.2018 13:00:00 6,4 3,5 - - 34 18 50 27 N 1019,5 10 0 0,0
20.02.2018 12:00:00 6,2 5,1 - - 35 19 46 25 N 1019,4 10 0 0,2
20.02.2018 11:00:00 6,0 5,6 - - 26 14 - - N 1019,4 10 0 0,4
20.02.2018 10:00:00 5,3 4,9 - - 5 3 - - WSW 1018,8 3,0 0 1,2
20.02.2018 09:00:00 5,2 4,8 5,2 5,4 5 3 - - S 1018,8 1,3 0 0,2
20.02.2018 08:00:00 5,1 4,7 - - 5 3 - - SSE 1018,5 2,0 0 0,4
20.02.2018 07:00:00 5,0 4,7 - - 0 0 - - N 1018,4 2,0 0 0,2
20.02.2018 06:00:00 5,2 4,9 - - 0 0 - - N 1018,0 1,8 0 0,2
20.02.2018 05:00:00 5,3 5,0 - - 0 0 - - N 1018,1 2,1 0 0,4
20.02.2018 04:00:00 5,6 5,3 - - 8 4 - - ESE 1017,6 2,4 0 0,4
20.02.2018 03:00:00 5,8 5,5 - - 5 3 - - ESE 1017,5 3,0 0 0,2
20.02.2018 02:00:00 5,9 5,6 - - 5 3 - - ESE 1017,2 6 0 0,2
20.02.2018 01:00:00 6,2 5,9 - - 9 5 - - E 1017,1 2,2 0 0,4
20.02.2018 00:00:00 6,5 6,2 - - 8 4 - - NE 1017,0 0,5 - 0,2
19.02.2018 23:00:00 6,6 6,3 - - 11 6 - - ENE 1016,3 0,7 0 0,0
19.02.2018 22:00:00 6,9 6,6 - - 9 5 - - NNE 1016,2 2,5 0 0,0
19.02.2018 21:00:00 7,1 6,7 - - 9 5 - - N 1016,0 3,4 0 0,2
19.02.2018 20:00:00 7,3 7,0 - - 11 6 - - NNE 1016,1 2,1 0 0,0
19.02.2018 19:00:00 7,6 7,3 - - 11 6 - - NNE 1015,6 2,6 0 0,4
19.02.2018 18:00:00 7,7 7,3 - - 9 5 - - N 1015,5 2,8 0 0,0
19.02.2018 17:00:00 8,1 7,7 - - 9 5 - - NNE 1015,1 2,5 0 0,4
19.02.2018 16:00:00 8,3 7,9 - - 8 4 - - N 1014,8 2,2 0 0,4
19.02.2018 15:00:00 8,3 7,8 - - 8 4 - - N 1014,9 2,2 0 0,4
19.02.2018 14:00:00 8,0 7,6 - - 5 3 - - WNW 1015,0 2,2 0 0,4
19.02.2018 13:00:00 7,6 7,1 - - 8 4 - - W 1015,2 2,5 0 0,2
19.02.2018 12:00:00 7,0 6,6 - - 11 6 - - WSW 1015,6 2,5 0 0,2
19.02.2018 11:00:00 6,5 6,1 - - 11 6 - - SW 1016,1 2,5 0 0,6
19.02.2018 10:00:00 6,1 5,8 - - 11 6 - - SW 1016,3 2,0 0 0,6
19.02.2018 09:00:00 5,6 5,2 4,7 5,2 9 5 - - SSW 1016,7 1,1 0 0,4
19.02.2018 08:00:00 5,3 4,8 - - 11 6 - - SSW 1017,0 0,9 0 0,2
19.02.2018 07:00:00 5,0 4,4 - - 9 5 - - SSW 1017,2 1,2 0 0,0
19.02.2018 06:00:00 5,0 4,2 - - 9 5 - - SSW 1017,2 2,9 0 0,2
19.02.2018 05:00:00 5,0 3,6 - - 8 4 - - S 1017,4 5 0 0,0
19.02.2018 04:00:00 5,3 3,4 - - 8 4 - - SSW 1017,9 8 0 0,0
19.02.2018 03:00:00 5,2 3,4 - - 9 5 - - S 1018,3 8 0 0,0
19.02.2018 02:00:00 5,0 3,1 - - 8 4 - - S 1018,8 9 0 0,0
19.02.2018 01:00:00 5,0 3,0 - - 8 4 - - S 1019,2 10 0 0,0
19.02.2018 00:00:00 5,2 2,8 - - 8 4 - - S 1019,9 12 - 0,0
18.02.2018 23:00:00 4,9 2,7 - - 8 4 - - S 1020,1 12 0 0,0
18.02.2018 22:00:00 4,7 2,5 - - 11 6 - - SSW 1020,6 10 0 0,0
18.02.2018 21:00:00 4,8 2,5 - - 11 6 - - S 1020,8 10 0 0,0
18.02.2018 20:00:00 4,8 2,8 - - 11 6 - - S 1021,1 12 0 0,0
18.02.2018 19:00:00 4,4 2,6 - - 11 6 - - SSE 1021,3 14 0 0,0
18.02.2018 18:00:00 4,8 2,7 - - 11 6 - - SSE 1021,6 10 0 0,0
18.02.2018 17:00:00 6,0 3,1 - - 13 7 - - SSE 1021,6 24 0 0,0
18.02.2018 16:00:00 7,2 3,0 - - 16 9 - - SSE 1021,8 23 18 0,0
18.02.2018 15:00:00 8,2 2,4 - - 15 8 - - S 1021,7 24 36 0,0
18.02.2018 14:00:00 9,4 2,7 - - 15 8 - - S 1021,7 30 48 0,0
18.02.2018 13:00:00 8,6 2,2 - - 15 8 - - S 1022,2 30 54 0,0
18.02.2018 12:00:00 8,4 2,6 - - 15 8 - - SSW 1022,7 26 60 0,0
18.02.2018 11:00:00 7,1 2,9 - - 15 8 - - S 1022,8 10 54 0,0
18.02.2018 10:00:00 5,8 3,3 - - 15 8 - - S 1022,9 21 60 0,0
18.02.2018 09:00:00 4,0 2,9 4,2 5,2 11 6 - - S 1023,4 10 54 0,0
18.02.2018 08:00:00 2,9 1,9 - - 13 7 - - S 1023,6 14 0 0,0
18.02.2018 07:00:00 3,0 1,9 - - 13 7 - - S 1023,2 14 0 0,0
18.02.2018 06:00:00 2,6 1,7 - - 13 7 - - S 1023,1 9 0 0,0
18.02.2018 05:00:00 2,0 1,1 - - 11 6 - - S 1023,2 7 0 0,0
18.02.2018 04:00:00 2,1 0,9 - - 15 8 - - S 1023,1 8 0 0,0
18.02.2018 03:00:00 2,1 0,4 - - 11 6 - - S 1023,6 10 0 0,0
18.02.2018 02:00:00 2,5 0,4 - - 11 6 - - S 1023,8 14 0 0,0
18.02.2018 01:00:00 2,3 0,0 - - 9 5 - - S 1023,6 15 0 0,0
18.02.2018 00:00:00 3,0 0,2 - - 9 5 - - SSW 1023,6 19 - 0,0
17.02.2018 23:00:00 3,5 0,3 - - 9 5 - - S 1023,7 17 0 0,0
17.02.2018 22:00:00 3,6 0,0 - - 13 7 - - S 1023,6 18 0 0,0
17.02.2018 21:00:00 3,8 -0,7 - - 11 6 - - S 1023,5 23 0 0,0
17.02.2018 20:00:00 4,2 0,1 - - 13 7 - - SSE 1023,5 22 0 0,0
17.02.2018 19:00:00 4,3 -0,4 - - 11 6 - - SSE 1023,3 19 0 0,0
17.02.2018 18:00:00 4,8 -1,9 - - 11 6 - - S 1023,0 29 0 0,0
17.02.2018 17:00:00 6,1 -3,2 - - 11 6 - - S 1022,5 35 54 0,0
17.02.2018 16:00:00 7,7 -3,3 - - 13 7 - - SSW 1022,4 29 60 0,0
17.02.2018 15:00:00 8,2 -2,9 - - 11 6 - - SSW 1022,2 30 60 0,0
17.02.2018 14:00:00 8,3 -2,2 - - 11 6 - - S 1022,2 35 60 0,0
17.02.2018 13:00:00 8,1 -1,2 - - 13 7 - - S 1022,4 28 54 0,0
17.02.2018 12:00:00 7,9 -1,5 - - 13 7 - - S 1022,7 10 60 0,0
17.02.2018 11:00:00 6,5 1,7 - - 11 6 - - S 1022,7 10 60 0,0
17.02.2018 10:00:00 5,2 2,5 - - 9 5 - - SSE 1022,4 15 60 0,0
17.02.2018 09:00:00 2,4 1,8 4,2 5,2 9 5 - - SSE 1022,3 9 12 0,2
17.02.2018 08:00:00 2,2 1,7 - - 9 5 - - SE 1022,2 4,3 0 0,0
17.02.2018 07:00:00 2,2 1,6 - - 9 5 - - SSE 1022,0 5 0 0,0
17.02.2018 06:00:00 2,5 1,9 - - 8 4 - - SE 1021,9 6 0 0,0
17.02.2018 05:00:00 2,7 2,3 - - 8 4 - - ESE 1022,0 7 0 0,0
17.02.2018 04:00:00 0,2 -0,1 - - 0 0 - - N 1022,2 0,2 0 0,0
17.02.2018 03:00:00 2,6 2,0 - - 8 4 - - SE 1022,6 1,3 0 0,0
17.02.2018 02:00:00 2,7 2,0 - - 11 6 - - S 1023,0 10 0 0,0
17.02.2018 01:00:00 2,0 1,1 - - 11 6 - - SSE 1023,2 8 0 0,0
17.02.2018 00:00:00 2,2 0,7 - - 11 6 - - S 1023,7 15 - 0,0
16.02.2018 23:00:00 2,6 0,4 - - 11 6 - - S 1023,9 18 0 0,0
16.02.2018 22:00:00 3,7 0,2 - - 9 5 - - S 1023,7 21 0 0,0
16.02.2018 21:00:00 3,0 0,4 - - 11 6 - - SSE 1024,2 16 0 0,0
16.02.2018 20:00:00 3,4 -0,7 - - 11 6 - - S 1024,5 24 0 0,0
16.02.2018 19:00:00 3,4 -0,1 - - 9 5 - - SSE 1025,1 22 0 0,0
16.02.2018 18:00:00 4,6 0,1 - - 13 7 - - S 1025,0 21 0 0,0
16.02.2018 17:00:00 5,8 -2,2 - - 8 4 - - SSW 1024,8 10 18 0,0
16.02.2018 16:00:00 7,0 -2,1 - - 9 5 - - SW 1024,6 10 60 0,0
16.02.2018 15:00:00 8,4 -0,7 - - 8 4 - - SW 1024,8 10 42 0,0
16.02.2018 14:00:00 7,4 -1,0 - - 13 7 - - WNW 1025,2 10 60 0,0
16.02.2018 13:00:00 7,5 0,4 - - 13 7 - - W 1025,6 10 60 0,0
16.02.2018 12:00:00 6,9 0,8 - - 18 10 - - W 1025,9 10 60 0,0
16.02.2018 11:00:00 5,0 0,5 - - 15 8 - - W 1025,9 10 60 0,0
16.02.2018 10:00:00 3,1 0,4 - - 16 9 - - W 1025,4 10 60 0,0
16.02.2018 09:00:00 1,1 -0,5 4,4 5,2 15 8 - - WSW 1024,9 10 60 0,0
16.02.2018 08:00:00 -0,8 -1,3 - - 15 8 - - W 1024,1 10 18 0,0
16.02.2018 07:00:00 -1,7 -2,3 - - 15 8 - - W 1023,4 10 0 0,0
16.02.2018 06:00:00 -1,2 -2,0 - - 13 7 - - WSW 1022,9 10 0 0,0
16.02.2018 05:00:00 -1,2 -2,0 - - 13 7 - - WSW 1022,6 10 0 0,0
16.02.2018 04:00:00 -0,7 -1,4 - - 13 7 - - WSW 1021,9 10 0 0,0
16.02.2018 03:00:00 -0,9 -1,6 - - 13 7 - - WSW 1021,2 10 0 0,0
16.02.2018 02:00:00 0,2 -1,0 - - 15 8 - - W 1020,4 10 0 0,0
16.02.2018 01:00:00 -0,2 -1,3 - - 15 8 - - W 1019,6 10 0 0,0
16.02.2018 00:00:00 1,2 -0,6 - - 15 8 - - WSW 1019,0 10 - 0,0
15.02.2018 23:00:00 2,1 -1,1 - - 21 11 - - WSW 1018,2 10 0 0,0
15.02.2018 22:00:00 2,3 -1,4 - - 21 11 - - W 1017,4 10 0 0,0
15.02.2018 21:00:00 2,8 -1,6 - - 21 11 - - W 1016,6 10 0 0,0
15.02.2018 20:00:00 3,6 -1,8 - - 21 11 - - WSW 1015,7 10 0 0,0
15.02.2018 19:00:00 3,9 -1,7 - - 16 9 - - WSW 1015,0 10 0 0,0
15.02.2018 18:00:00 3,6 -2,8 - - 13 7 - - WSW 1014,2 10 0 0,0
15.02.2018 17:00:00 4,7 -2,7 - - 15 8 - - W 1013,4 10 48 0,0

tt = temperature
td = dewpoint
tt -20cm = temperature -20cm
tt -100cm = temperature -100cm
ff = wind speed
fx = gusts
dd = wind direction
ppp = reduced air pressure
vv = visibility
sd = sunshine duration
rr = precipitation

Next stations